Regional Weather Roundup
Issued by NWS

Home | Current Version | Previous Version | Text Only | Print | Product List | Glossary On
Versions: 1 2 3 4 5 6 7 8 9 10 11 12 13 14 15 16 17 18 19 20 21 22 23 24 25 26 27 28 29 30 31 32 33 34 35 36 37 38 39 40 41 42 43 44 45 46 47 48 49 50
000
ASUS42 KFFC 240010
RWRGA
WEATHER ROUNDUP FOR GEORGIA
NATIONAL WEATHER SERVICE PEACHTREE CITY GA
800 PM EDT SUN APR 23 2017

NOTE: "FAIR" INDICATES FEW OR NO CLOUDS BELOW 12,000 FEET WITH NO
SIGNIFICANT WEATHER AND/OR OBSTRUCTIONS TO VISIBILITY.

* = USE WITH CAUTION. THE STATIONS MARKED WITH AN ASTERISK MAY NOT
REPORT WEATHER SUCH AS PRECIPITATION, FOG, OR THUNDER AND ARE NOT
QUALITY CONTROLLED BY NWS.

THE REMARK "TC" DENOTES TEMPERATURE READING IN DEGREES CELSIUS.

GAZ001>058-240100-
NORTH GEORGIA

CITY           SKY/WX    TMP DP  RH WIND       PRES   REMARKS
ATLANTA        MOCLDY    61  58  90 NE18G24   29.78R
6HR MIN TEMP:  61; 6HR MAX TEMP:  67; 6HR PCP:  0.53;

ATHENS         LGT RAIN  54  54 100 NE10      29.80F
6HR MIN TEMP:  54; 6HR MAX TEMP:  63; 6HR PCP:  1.07;

CHAMBLEE       CLOUDY    55  52  89 NE10      29.79R
6HR MIN TEMP:  55; 6HR MAX TEMP:  64; 6HR PCP:  0.85;

PEACHTREE CITY MOCLDY    62  61  96 CALM      29.77S
6HR MIN TEMP:  60; 6HR MAX TEMP:  69; 6HR PCP:  0.18;

ROME           MOCLDY    63  54  72 W5        29.76S
6HR MIN TEMP:  61; 6HR MAX TEMP:  69; 6HR PCP:  0.08;

WEST ATLANTA   CLOUDY    58  57  97 NE9       29.77R
6HR MIN TEMP:  58; 6HR MAX TEMP:  66; 6HR PCP:  0.30;

GAINESVILLE    CLOUDY    52  51  97 E12G21    29.83R
6HR MIN TEMP:  52; 6HR MAX TEMP:  58; 6HR PCP:  0.83;

CARTERSVILLE   LGT RAIN  58  55  90 VRB5      29.78R
6HR MIN TEMP:  58; 6HR MAX TEMP:  66; 6HR PCP:  0.21;



CITY           SKY/WX    TMP DP  RH WIND       PRES   REMARKS
DALTON*        MOCLDY    59  59 100 SE3       29.77R
LAWRENCEVILLE* MOCLDY    54  52  94 NE12      29.81R
MARIETTA       CLOUDY    56  53  91 NE7       29.79R
KENNESAW*      CLOUDY    55  54  94 SE9       29.79R
CANTON*        CLOUDY    54  50  87 E7        29.82R
$$

GAZ059>098-102>109-240100-
CENTRAL GEORGIA

CITY           SKY/WX    TMP DP  RH WIND       PRES   REMARKS
AUGUSTA-BUSH   LGT RAIN  69  65  86 N9        29.73S
6HR MIN TEMP:  69; 6HR MAX TEMP:  88; 6HR PCP:  0.03;

AUGUSTA-DANIEL LGT RAIN  68  60  75 N8        29.76S
6HR MIN TEMP:  68; 6HR MAX TEMP:  86; 6HR PCP: TRACE;

COLUMBUS       PTCLDY    64  57  78 W3        29.77S
6HR MIN TEMP:  63; 6HR MAX TEMP:  68; 6HR PCP:  0.31;

MACON          RAIN      64  61  90 NW7       29.76R FOG
6HR MIN TEMP:  64; 6HR MAX TEMP:  83; 6HR PCP:  0.17;

ROBINS AFB     CLOUDY    64  63  94 NW7       29.75R


CITY           SKY/WX    TMP DP  RH WIND       PRES   REMARKS
LAGRANGE*      MOCLDY    65  65 100 CALM      29.76S
SYLVANIA*      DRIZZLE   75  68  78 CALM      29.73S
MILLEDGEVILLE* CLOUDY    64  64 100 N3        29.75S
$$

GAZ099>101-110>166-240100-
SOUTH GEORGIA

CITY           SKY/WX    TMP DP  RH WIND       PRES   REMARKS
SAVANNAH       CLOUDY    77  64  64 SE17      29.74S
6HR MIN TEMP:  77; 6HR MAX TEMP:  88;

VALDOSTA       CLOUDY    77  56  48 SW5       29.74R
6HR MIN TEMP:  77; 6HR MAX TEMP:  87; 6HR PCP: TRACE;

ALMA           PTCLDY    80  62  54 SW5       29.71R
6HR MIN TEMP:  80; 6HR MAX TEMP:  88;

ST SIMONS      CLOUDY    75  70  84 SE13G21   29.75S
6HR MIN TEMP:  74; 6HR MAX TEMP:  82; 6HR PCP: TRACE;

FT STEWART     CLOUDY    76  63  62 SE8       29.72R
ALBANY         CLOUDY    66  63  90 NW8       29.78R
HUNTER AFB     CLOUDY    75  72  90 SE13      29.73S
MOODY AFB      MOCLDY    79  55  43 SW9       29.72R
BRUNSWICK      LGT RAIN  77  72  83 SE15G21   29.76R


CITY           SKY/WX    TMP DP  RH WIND       PRES   REMARKS
BAINBRIDGE*    CLOUDY    66  63  88 NW8       29.77R
MOULTRIE*      RAIN      72  68  88 W7        29.75R
VIDALIA*       CLOUDY    81  61  50 SW6       29.71R
WAYCROSS*      CLEAR     83  67  56 SW9       29.72R
DOUGLAS*       CLOUDY    79  59  50 SW8       29.74R
$$




USA.gov is the U.S. government's official web portal to all federal, state and local government web resources and services.